Siloam Springs, AR

1:24 PM CST on January 22, 2018 (GMT -0600)
Smith

Weather History for KSLG - July, 2013

Change the Weather History Date:

Monday, July 15, 2013

  Actual Average Record
Temperature  
Mean Temperature 78 °F -  
Max Temperature 87 °F 86 °F 96 °F (2011)
Min Temperature 69 °F 67 °F 57 °F (1996)
Cooling Degree Days 13    
Growing Degree Days 28 (Base 50)    
Moisture  
Dew Point 62 °F    
Average Humidity 59    
Maximum Humidity 73    
Minimum Humidity 45    
Precipitation  
Precipitation 0.00 in - - ()
Sea Level Pressure  
Sea Level Pressure 30.14 in    
Wind  
Wind Speed 5 mph (ESE)    
Max Wind Speed 16 mph    
Max Gust Speed 24 mph    
Visibility 10 miles    
Events      
Averages and records for this station are not official NWS values.
T = Trace of Precipitation, MM = Missing Value Source: NWS Daily Summary

Daily Weather History Graph

Daily Weather History Graph

Search for Another Location

Airport or City:

Trip Planner

Search our weather history database for the weather conditions in past years. The results will help you decide how hot, cold, wet, or windy it might be!

Date:

Astronomy

Jul. 15, 2013 Rise Set
Actual Time 6:12 AM CDT 8:35 PM CDT
Civil Twilight 5:42 AM CDT 9:04 PM CDT
Nautical Twilight 5:06 AM CDT 9:40 PM CDT
Astronomical Twilight 4:26 AM CDT 10:20 PM CDT
Moon 1:17 PM CDT (7/15) 12:02 AM CDT (7/15)
Length of Visible Light 15h 21m
Length of Day
14h 22m
Waxing Crescent, 45% of the Moon is Illuminated
Jul 15
Waxing Crescent
Jul 15
First Quarter
Jul 22
Full
Jul 29
Last Quarter
Aug 6
New

Hourly Weather History & Observations

Time (CDT) Temp. Heat Index Dew Point Humidity Pressure Visibility Wind Dir Wind Speed Gust Speed Precip Events Conditions
12:15 AM 73.4 °F - 55.4 °F 53% 30.09 in 10.0 mi Calm Calm - N/A   Clear
12:35 AM 71.6 °F - 55.4 °F 57% 30.10 in 10.0 mi ENE 4.6 mph - N/A   Clear
12:55 AM 71.6 °F - 57.2 °F 60% 30.09 in 10.0 mi Calm Calm - N/A   Clear
1:15 AM 71.6 °F - 57.2 °F 60% 30.09 in 10.0 mi ENE 4.6 mph - N/A   Clear
1:35 AM 71.6 °F - 57.2 °F 60% 30.09 in 10.0 mi ENE 4.6 mph - N/A   Clear
1:55 AM 71.6 °F - 59.0 °F 64% 30.08 in 10.0 mi ENE 6.9 mph - N/A   Clear
2:15 AM 71.6 °F - 59.0 °F 64% 30.09 in 10.0 mi ENE 3.5 mph - N/A   Clear
2:35 AM 71.6 °F - 59.0 °F 64% 30.09 in 10.0 mi ENE 4.6 mph - N/A   Clear
2:55 AM 71.6 °F - 60.8 °F 69% 30.09 in 10.0 mi Calm Calm - N/A   Clear
3:15 AM 73.4 °F - 60.8 °F 65% 30.09 in 10.0 mi East 3.5 mph - N/A   Partly Cloudy
3:35 AM 73.4 °F - 60.8 °F 65% 30.09 in 10.0 mi East 3.5 mph - N/A   Partly Cloudy
3:55 AM 73.4 °F - 60.8 °F 65% 30.09 in 10.0 mi ENE 4.6 mph - N/A   Mostly Cloudy
4:15 AM 71.6 °F - 60.8 °F 69% 30.09 in 10.0 mi Calm Calm - N/A   Mostly Cloudy
4:55 AM 71.6 °F - 60.8 °F 69% 30.10 in 10.0 mi NE 3.5 mph - N/A   Partly Cloudy
5:15 AM 71.6 °F - 60.8 °F 69% 30.10 in 10.0 mi ENE 5.8 mph - N/A   Partly Cloudy
5:35 AM 71.6 °F - 60.8 °F 69% 30.11 in 10.0 mi ENE 3.5 mph - N/A   Clear
5:55 AM 71.6 °F - 60.8 °F 69% 30.12 in 10.0 mi Calm Calm - N/A   Partly Cloudy
6:15 AM 69.8 °F - 60.8 °F 73% 30.12 in 10.0 mi East 3.5 mph - N/A   Clear
6:35 AM 69.8 °F - 60.8 °F 73% 30.13 in 10.0 mi East 3.5 mph - N/A   Clear
6:55 AM 69.8 °F - 60.8 °F 73% 30.14 in 10.0 mi Calm Calm - N/A   Clear
7:15 AM 71.6 °F - 60.8 °F 69% 30.15 in 10.0 mi East 3.5 mph - N/A   Clear
7:35 AM 71.6 °F - 60.8 °F 69% 30.15 in 10.0 mi East 3.5 mph - N/A   Clear
8:15 AM 73.4 °F - 62.6 °F 69% 30.16 in 10.0 mi East 5.8 mph - N/A   Clear
8:35 AM 73.4 °F - 62.6 °F 69% 30.16 in 10.0 mi ESE 5.8 mph - N/A   Clear
8:55 AM 73.4 °F - 62.6 °F 69% 30.17 in 10.0 mi ESE 9.2 mph - N/A   Clear
9:15 AM 77.0 °F - 64.4 °F 65% 30.17 in 10.0 mi East 10.4 mph - N/A   Clear
9:35 AM 78.8 °F - 64.4 °F 61% 30.17 in 10.0 mi East 9.2 mph 16.1 mph N/A   Clear
10:15 AM 80.6 °F 82.3 °F 64.4 °F 58% 30.17 in 10.0 mi SE 10.4 mph 17.3 mph N/A   Partly Cloudy
10:35 AM 82.4 °F 83.9 °F 64.4 °F 54% 30.17 in 10.0 mi SSE 12.7 mph 20.7 mph N/A   Clear
10:55 AM 84.2 °F 85.0 °F 62.6 °F 48% 30.18 in 10.0 mi SE 13.8 mph 23.0 mph N/A   Mostly Cloudy
11:15 AM 84.2 °F 85.0 °F 62.6 °F 48% 30.17 in 10.0 mi SE 16.1 mph 20.7 mph N/A   Partly Cloudy
11:35 AM 86.0 °F 86.6 °F 62.6 °F 45% 30.16 in 10.0 mi SSE 13.8 mph 23.0 mph N/A   Partly Cloudy
11:55 AM 84.2 °F 85.0 °F 62.6 °F 48% 30.16 in 10.0 mi SE 10.4 mph 16.1 mph N/A   Mostly Cloudy
12:15 PM 86.0 °F 87.3 °F 64.4 °F 48% 30.17 in 10.0 mi SSW 15.0 mph 24.2 mph N/A   Mostly Cloudy
12:35 PM 82.4 °F 83.9 °F 64.4 °F 54% 30.17 in 10.0 mi SSW 15.0 mph 18.4 mph N/A   Mostly Cloudy
12:55 PM 84.2 °F 85.6 °F 64.4 °F 51% 30.16 in 10.0 mi SSW 13.8 mph - N/A   Mostly Cloudy
1:15 PM 84.2 °F 85.6 °F 64.4 °F 51% 30.16 in 10.0 mi South 13.8 mph 19.6 mph N/A   Scattered Clouds
1:35 PM 84.2 °F 85.6 °F 64.4 °F 51% 30.15 in 10.0 mi SSW 10.4 mph 17.3 mph N/A   Scattered Clouds
1:55 PM 87.8 °F 90.4 °F 66.2 °F 49% 30.15 in 10.0 mi South 15.0 mph 21.9 mph N/A   Scattered Clouds
2:15 PM 87.8 °F 89.4 °F 64.4 °F 46% 30.15 in 10.0 mi South 13.8 mph 18.4 mph N/A   Mostly Cloudy
2:36 PM 80.6 °F 82.7 °F 66.2 °F 61% 30.15 in 9.0 mi SSE 9.2 mph 17.3 mph N/A   Overcast
2:55 PM 84.2 °F 85.6 °F 64.4 °F 51% 30.15 in 10.0 mi SE 9.2 mph - N/A   Scattered Clouds
3:15 PM 87.8 °F 89.4 °F 64.4 °F 46% 30.14 in 10.0 mi SSE 10.4 mph 17.3 mph N/A   Clear
3:35 PM 87.8 °F 89.4 °F 64.4 °F 46% 30.13 in 10.0 mi SSE 3.5 mph - N/A   Scattered Clouds
3:55 PM 86.0 °F 87.3 °F 64.4 °F 48% 30.13 in 10.0 mi South 6.9 mph - N/A   Mostly Cloudy
4:15 PM 84.2 °F 85.0 °F 62.6 °F 48% 30.13 in 10.0 mi SSW 10.4 mph - N/A   Scattered Clouds
4:35 PM 84.2 °F 85.0 °F 62.6 °F 48% 30.13 in 10.0 mi South 5.8 mph - N/A   Partly Cloudy
4:55 PM 86.0 °F 86.6 °F 62.6 °F 45% 30.12 in 10.0 mi WSW 6.9 mph - N/A   Partly Cloudy
5:15 PM 87.8 °F 89.4 °F 64.4 °F 46% 30.12 in 10.0 mi WNW 4.6 mph - N/A   Partly Cloudy
5:35 PM 87.8 °F 89.4 °F 64.4 °F 46% 30.12 in 10.0 mi SSW 8.1 mph - N/A   Scattered Clouds
5:55 PM 87.8 °F 89.4 °F 64.4 °F 46% 30.11 in 10.0 mi West 4.6 mph - N/A   Partly Cloudy
6:15 PM 87.8 °F 89.4 °F 64.4 °F 46% 30.12 in 10.0 mi WSW 9.2 mph - N/A   Scattered Clouds
6:35 PM 86.0 °F 87.3 °F 64.4 °F 48% 30.12 in 10.0 mi West 10.4 mph - N/A   Partly Cloudy
6:55 PM 84.2 °F 85.6 °F 64.4 °F 51% 30.12 in 10.0 mi West 10.4 mph - N/A   Clear
7:15 PM 84.2 °F 85.6 °F 64.4 °F 51% 30.13 in 10.0 mi West 8.1 mph - N/A   Clear
7:36 PM 82.4 °F 83.4 °F 62.6 °F 51% 30.13 in 10.0 mi West 8.1 mph - N/A   Clear
7:55 PM 82.4 °F 83.4 °F 62.6 °F 51% 30.14 in 10.0 mi WNW 6.9 mph - N/A   Clear
8:15 PM 80.6 °F 81.8 °F 62.6 °F 54% 30.15 in 10.0 mi NW 5.8 mph - N/A   Clear
8:55 PM 75.2 °F - 62.6 °F 65% 30.17 in 10.0 mi North 5.8 mph - N/A   Mostly Cloudy
9:15 PM 73.4 °F - 62.6 °F 69% 30.17 in 10.0 mi NNW 9.2 mph - N/A   Mostly Cloudy
9:36 PM 75.2 °F - 62.6 °F 65% 30.18 in 10.0 mi Calm Calm - N/A   Scattered Clouds
9:55 PM 73.4 °F - 62.6 °F 69% 30.19 in 10.0 mi NNE 5.8 mph - N/A   Partly Cloudy
10:15 PM 73.4 °F - 64.4 °F 73% 30.20 in 10.0 mi NE 5.8 mph - N/A   Scattered Clouds
10:35 PM 75.2 °F - 64.4 °F 69% 30.19 in 10.0 mi North 10.4 mph - N/A   Scattered Clouds
10:55 PM 73.4 °F - 64.4 °F 73% 30.20 in 10.0 mi NNE 4.6 mph - N/A   Partly Cloudy
11:15 PM 73.4 °F - 64.4 °F 73% 30.22 in 10.0 mi WSW 8.1 mph - N/A   Mostly Cloudy
11:35 PM 75.2 °F - 64.4 °F 69% 30.22 in 10.0 mi Calm Calm - N/A   Overcast
11:55 PM 73.4 °F - 64.4 °F 73% 30.22 in 10.0 mi NNE 3.5 mph - N/A   Mostly Cloudy